Flag for U.S.A. Weather past 2 weeks in Marengo, Indiana, U.S.A.

Now
50 °F

Clear.


Feels Like: 50 °F
Forecast: 53 / 75 °F
Wind: No wind

Location: Bowling Green-Warren County Regional Airport


UV Index: 5 (Moderate)

Visibility: 10 mi


Pressure: 30.09 "Hg

Humidity: 86%

Dew point: 46 °F

Location of MarengoLocation

Historic Weather in Marengo

°F

Marengo temperature yesterday

Maximum temperature yesterday: 76 °F (at 3:53 PM)
Minimum temperature yesterday: 43 °F (at 6:53 AM)
Average temperature yesterday: 61 °F

Past Weeks' High & Low Weather Summary

 TemperatureHumidityPressure
High81 °F (Apr 13, 2:53 PM)100% (Apr 12, 7:53 AM)30.38 "Hg (Apr 12, 7:53 AM)
Low28 °F (Apr 16, 5:53 AM)24% (Apr 20, 4:53 PM)29.46 "Hg (Apr 7, 2:53 PM)
Average57 °F59%30.04 "Hg
* Reported Apr 6 5:53 AM — Apr 21 5:53 AM, Marengo, Weather by CustomWeather, © 2014

Note: Actual official high and low records may vary slightly from our data, if they occured in-between our weather recording intervals... More about our weather records

Advertising

Historic Weather Conditions — Data for Previous 24 hours

 ConditionsComfort  
Time TempWeatherWind HumidityBarometerVisibility
5:53 AM
Apr 21
50 °FClear.No wind86%30.09 "Hg10 mi
4:53 AM48 °FClear.No wind89%30.09 "Hg10 mi
3:53 AM50 °FClear.No wind86%30.09 "Hg10 mi
2:53 AM51 °FClear.No wind80%30.09 "Hg10 mi
1:53 AM52 °FClear.No wind77%30.10 "Hg10 mi
12:53 AM53 °FClear.No wind77%30.10 "Hg10 mi
11:53 PM
Apr 20
57 °FClear.No wind64%30.10 "Hg10 mi
10:53 PM59 °FClear.No wind58%30.11 "Hg10 mi
9:53 PM61 °FClear.No wind48%30.11 "Hg10 mi
8:53 PM70 °FSunny.No wind28%30.10 "Hg10 mi
7:53 PM74 °FSunny.5 mph27%30.10 "Hg10 mi
6:53 PM75 °FSunny.3 mph24%30.11 "Hg10 mi
5:53 PM75 °FSunny.3 mph24%30.12 "Hg10 mi
4:53 PM76 °FSunny.No wind24%30.14 "Hg10 mi
3:53 PM76 °FSunny.7 mph26%30.15 "Hg10 mi
2:53 PM75 °FSunny.6 mph25%30.17 "Hg10 mi
1:53 PM74 °FSunny.No wind28%30.19 "Hg10 mi
12:53 PM72 °FSunny.No wind31%30.21 "Hg10 mi
11:53 AM69 °FSunny.3 mph35%30.22 "Hg10 mi
10:53 AM63 °FSunny.No wind45%30.23 "Hg10 mi
9:53 AM58 °FSunny.3 mph51%30.23 "Hg10 mi
8:53 AM54 °FSunny.No wind67%30.24 "Hg10 mi
7:53 AM46 °FClear.No wind79%30.22 "Hg10 mi
6:53 AM43 °FClear.No wind82%30.20 "Hg10 mi
Weather by CustomWeather, © 2014

See weather overview